Regional Weather Roundup
Issued by NWS Upton, NY

Current Version | Previous Version | Text Only | Print | Product List | Glossary On
Versions: 1 2 3 4 5 6 7 8 9 10 11 12 13 14 15 16 17 18 19 20 21 22 23 24 25 26 27 28 29 30 31 32 33 34 35 36 37 38 39 40 41 42 43 44 45 46 47 48 49 50
000 ASUS41 KOKX 191805 RWROKX REGIONAL WEATHER ROUNDUP NATIONAL WEATHER SERVICE NEW YORK NY 200 PM EDT SUN OCT 19 2014 NOTE: "FAIR" INDICATES FEW OR NO CLOUDS BELOW 12,000 FEET WITH NO SIGNIFICANT WEATHER AND/OR OBSTRUCTIONS TO VISIBILITY. NYZ071-072-176-178-NJZ106-104-191900- NEW YORK CITY METRO AREA CITY SKY/WX TMP DP RH WIND PRES REMARKS CENTRAL PARK SUNNY 53 28 38 NW13G23 29.92S LAGUARDIA APRT MOSUNNY 53 32 44 NW23G33 29.89R KENNEDY INTL MOSUNNY 56 29 35 NW22G29 29.89S NEWARK/LIBERTY MOSUNNY 55 27 34 NW22G30 29.91R BRNX BOT. GARD N/A N/A N/A N/A NW12 29.91R TETERBORO SUNNY 55 28 35 NW16G25 29.89F $$ NYZ177-179-078>081-191900- LONG ISLAND NEW YORK CITY SKY/WX TMP DP RH WIND PRES REMARKS FARMINGDALE MOSUNNY 56 34 43 NW13 29.86S ISLIP PTSUNNY 55 34 45 NW10G21 29.83S SHIRLEY NOT AVBL WESTHAMPTON CLOUDY 55 33 43 NW20G28 29.85R MONTAUK POINT N/A 56 36 47 NW15G24 29.82R $$ NYZ052-065-067-191900- HUDSON VALLEY CITY SKY/WX TMP DP RH WIND PRES REMARKS WHITE PLAINS PTSUNNY 53 31 42 NW22G29 29.86S NEWBURGH MOSUNNY 50 30 46 N20G31 29.92S MONTGOMERY SUNNY 50 27 40 N17G28 29.93R POUGHKEEPSIE SUNNY 54 28 36 NW14G25 29.90S ALBANY PTSUNNY 47 28 47 W21G30 29.92S $$ NJZ001-105-106-008-010-013-015-019>022-104-191900- NEW JERSEY CITY SKY/WX TMP DP RH WIND PRES REMARKS NEWARK/LIBERTY MOSUNNY 55 27 34 NW22G30 29.91R TETERBORO SUNNY 55 28 35 NW16G25 29.89F CALDWELL MOSUNNY 51 25 36 NW16G25 29.92F MORRISTOWN MOSUNNY 54 28 37 N15G23 29.93S SOMERVILLE SUNNY 53 25 33 NW18G29 29.93S SUSSEX SUNNY 50 26 39 N14G23 29.95S ANDOVER N/A 48 26 42 NW10G18 29.95F TRENTON SUNNY 53 29 39 NW14G24 29.94S MILLVILLE MOSUNNY 54 32 43 NW17G28 29.97R ATLANTIC CITY MOSUNNY 56 33 42 NW20G29 29.93S WRIGHTSTOWN SUNNY 54 30 40 W21G28 29.92S TOMS RIVER SUNNY 54 30 40 NW14G22 29.92R BELMAR MOSUNNY 54 28 37 NW23G30 29.91R $$ PAZ047>061-062-071-191900- EASTERN PENNSYLVANIA CITY SKY/WX TMP DP RH WIND PRES REMARKS PHILADELPHIA MOSUNNY 55 27 34 NW20 29.98S ALLENTOWN PTSUNNY 51 28 41 NW17 29.99F SCRANTON CLOUDY 46 28 49 NW16G23 30.00F $$ CTZ002-004>006-009-010-012-RIZ004-006-007-MAZ004-011-015-191900- SOUTHERN NEW ENGLAND IN CT CITY SKY/WX TMP DP RH WIND PRES REMARKS BRADLEY INTL PTSUNNY 52 29 41 W18G29 29.83S HARTFORD PTSUNNY 52 29 41 W15G22 29.84S DANBURY SUNNY 52 31 44 N15G24 29.87S WTRBRY/OXFORD MOSUNNY 48 27 43 NW17G32 29.85S BRIDGEPORT MOSUNNY 56 32 40 N17G26 29.84S MERIDEN SUNNY 52 28 39 NW18G31 29.85R NEW HAVEN MOSUNNY 56 31 38 NW16G24 29.85R CHESTER FAIR 52 30 43 NW14G23 29.83R GROTON PTSUNNY 53 34 48 NW15G26 29.81R WILLIMANTIC CLOUDY 52 31 44 NW14G24 29.82R IN RI CITY SKY/WX TMP DP RH WIND PRES REMARKS PROVIDENCE PTSUNNY 54 35 48 W12G23 29.79R BLOCK ISLAND PTSUNNY 55 37 50 NW14G21 29.79R WESTERLY PTSUNNY 55 35 47 NW10G23 29.80R IN MA CITY SKY/WX TMP DP RH WIND PRES REMARKS BOSTON MOSUNNY 54 32 43 NW16 29.76R WORCESTER CLOUDY 47 32 56 W20G25 29.78R WESTFIELD CLOUDY 50 30 46 NW17G31 29.83F PROVINCETOWN CLOUDY 54 37 54 NW14G20 29.76S NANTUCKET CLOUDY 53 39 59 N16G24 29.74S $$ ANZ330-335-338-340-345-350-353-355-191900- COASTAL MARINE OBSERVATIONS STATION/POSITION TIME SKY/WX TEMP WIND PRES VSBY WAVE AIR SEA DIR/SP/G HT/PER (UTC) (F) (DEG/KT/KT) (MB) (MI) (FT/S) NY HARB ENTRANCE NOT AVBL 4S FIRE IS 1800 64 N/A 4/13 20S FIRE ISLAND 1800 54 64 310/ 19/ 25 1010.8 5/12 23SW MTP 1800 N/A 5/ 5 HUDSON CANYON 1800 56 66 320/ 21/ 27 1009.8 8/ 6 EXECUTION ROCKS 1800 54 64 320/ 19/ 27 N/A WESTERN LI SOUND 1700 54 300/ 17/ 23 N/A 2/ 2 CENTRAL LI SOUND 1700 53 65 300/ 21/ 27 N/A 3/ 3 EASTERN LI SOUND 1700 55 64 320/ 16/ 23 N/A ROBBINS REEF 1800 51 320/ 24/ 31 1011.1 $$ >>>>>>>>>>>>>>>>>>>>>>>>>>>> KEY <<<<<<<<<<<<<<<<<<<<<<<<<<< > < > SKY/WX - SKY CONDITION/PRESENT WEATHER < > TMP - TEMPERATURE IN FAHRENHEIT < > DP - DEWPOINT IN FAHRENHEIT < > RH - RELATIVE HUMIDITY IN PERCENT < > WIND - DIRECTION AND SPEED IN MPH < > PRES - MEAN SEA LEVEL PRESSURE IN INCHES OF HG < > WCI - WIND CHILL INDEX < > VSB - VISIBILITY IN MILES < > HX - HEAT INDEX < > TC - TEMPERATURE IN CELSIUS < > VRB - VARIABLE WIND DIRECTION < > < >>>>>>>>>>>>>>>>>>>>>>>>>>>> KEY <<<<<<<<<<<<<<<<<<<<<<<<<<<

USA.gov is the U.S. government's official web portal to all federal, state and local government web resources and services.